Wind_Speed
16 16 17 18 19 19 18 18 18 19 19 19 19 20 20 20 20 20 19 19 19 19 19 20 21 21 21 20 21 20 19 19 19 20 20 22 23 23 22 22 23 23 24 26
16 17 17 17 17 17 17 17 18 18 18 18 19 19 19 18 19 19 19 19 19 19 19 19 20 21 21 20 19 19 20 19 19 20 21 21 22 23 23 24 24 25 26 26
17 17 17 16 16 16 16 16 17 18 17 18 18 18 18 17 17 17 17 18 18 18 18 19 19 20 20 20 20 20 20 20 20 20 20 21 22 23 24 25 25 26 26 27
17 17 16 16 15 15 15 16 16 17 16 16 16 15 16 16 16 16 16 17 17 17 18 18 19 19 20 19 19 20 21 21 21 21 21 22 22 23 24 25 27 27 27 27
16 16 16 15 14 15 16 16 16 16 16 16 15 14 15 15 16 16 16 17 17 18 18 19 19 20 20 20 20 20 21 21 21 22 23 23 24 24 25 26 27 27 27 27
15 15 15 15 14 14 15 15 14 14 14 15 15 14 15 15 15 16 17 17 18 19 18 19 20 21 21 21 21 21 22 22 23 24 24 25 25 26 27 27 27 27 28 28
14 14 15 15 15 14 14 13 13 13 14 15 16 16 16 15 16 17 17 17 18 19 19 20 20 21 22 22 23 23 24 24 24 25 25 27 27 28 28 28 28 29 29 29
14 14 15 15 15 14 14 14 13 13 13 14 17 17 16 16 17 17 18 18 19 19 20 21 20 21 22 23 23 24 25 25 25 26 26 27 28 28 28 29 29 28 29 29
15 16 15 15 14 14 14 14 14 14 14 14 16 16 16 16 17 17 17 18 19 20 20 21 22 22 22 23 24 24 25 25 25 26 26 26 27 27 27 28 28 28 28 29
16 16 15 15 15 15 15 15 15 14 13 14 15 16 16 16 16 17 18 18 18 19 21 22 22 23 24 24 25 25 26 26 26 26 26 26 26 26 27 27 28 28 28 28
15 16 15 15 15 15 15 15 15 15 15 14 15 16 17 16 15 16 17 18 20 22 23 23 23 23 23 23 24 25 25 25 26 26 26 25 26 26 26 26 27 28 29 29
15 15 15 14 14 14 14 15 15 15 16 15 15 17 16 16 16 17 18 19 20 21 21 21 22 23 22 23 23 24 24 25 25 25 25 25 25 25 25 25 26 26 26 26
15 14 13 13 13 14 15 14 14 15 15 15 15 17 17 17 17 18 19 19 19 19 20 20 21 21 21 22 23 22 23 23 23 24 24 24 24 24 23 24 24 24 23 24
14 13 13 13 13 13 14 13 14 15 15 15 15 16 18 18 17 18 19 18 19 19 20 20 21 20 20 21 21 22 22 22 22 23 23 23 23 22 21 20 20 21 21 20
13 12 12 12 12 11 12 12 13 14 14 14 15 16 16 17 18 18 18 18 19 19 20 19 19 19 19 19 20 20 20 20 20 20 20 19 19 18 18 17 17 17 17 17
13 12 11 11 11 11 11 12 12 12 13 13 14 15 15 15 17 17 17 17 17 18 19 18 18 17 18 18 18 18 17 17 17 16 16 16 15 15 15 15 15 15 14 14
11 10 10 10 10 10 11 11 11 11 12 13 13 13 13 14 14 14 15 16 16 16 17 16 15 16 17 17 16 16 15 15 15 14 14 13 13 12 12 12 11 11 11 12
9 8 8 8 8 9 9 9 9 10 10 11 12 12 12 12 13 13 13 14 15 15 15 15 15 16 16 15 14 13 13 13 12 12 12 12 12 11 10 10 10 10 10 9
8 8 7 6 7 7 7 7 8 8 9 10 11 11 12 12 13 13 13 14 15 15 14 14 14 13 13 12 11 11 12 12 11 11 11 10 10 9 9 9 9 9 8 7
7 7 6 6 6 6 6 6 7 7 8 9 10 11 11 12 13 13 13 14 14 13 12 12 11 11 10 10 10 11 11 10 9 8 8 8 7 7 6 6 6 6 5 4
6 5 5 5 6 6 5 6 6 6 8 9 10 11 11 12 12 12 13 13 12 12 10 10 9 9 9 9 9 9 8 7 7 6 6 5 5 5 4 4 3 3 2 2
5 4 4 4 5 4 4 5 6 7 8 9 10 10 10 10 11 11 11 11 10 9 8 8 7 7 7 6 6 6 5 5 5 4 4 3 4 3 3 3 2 2 1 1
3 3 3 3 3 4 4 5 6 7 8 9 9 9 9 9 9 9 9 9 8 6 6 6 6 6 5 5 5 4 3 2 2 2 2 3 3 3 3 3 3 3 3 3
2 2 2 2 3 3 4 4 5 6 7 7 7 7 7 7 7 7 7 6 5 5 6 6 6 5 4 4 3 2 2 2 2 3 3 3 4 4 4 5 4 5 5 5
2 1 0 1 1 1 2 4 5 6 6 7 6 6 6 6 5 5 5 5 4 4 5 5 6 6 6 5 5 4 3 3 3 4 3 4 4 5 5 6 6 6 7 6
1 0 1 2 1 2 3 4 5 5 6 6 6 6 5 5 4 5 4 4 5 5 5 6 6 7 7 7 6 5 5 5 5 5 4 5 5 6 7 7 7 7 7 7
Wind_Direction
209 210 212 213 214 219 224 229 236 242 246 248 252 254 258 262 265 269 271 274 274 277 281 280 281 280 280 279 277 275 274 272 269 266 263 262 263 263 262 259 259 262 263 264
211 213 215 217 219 221 224 230 236 241 245 248 252 254 256 259 264 267 269 272 276 278 280 282 282 281 279 280 280 277 276 273 273 270 267 267 266 263 261 261 264 266 268 269
211 217 219 220 221 222 225 228 235 239 245 248 253 256 258 259 261 265 269 273 277 280 282 281 281 280 280 281 281 280 280 274 272 272 270 270 269 266 264 263 266 268 269 270
213 216 219 220 222 224 229 233 237 241 244 249 250 252 255 256 258 263 268 274 277 280 282 281 282 283 282 282 282 280 280 276 272 272 271 270 271 270 267 267 267 269 271 270
213 214 216 218 221 223 227 234 238 242 244 247 251 247 254 257 260 265 269 273 277 279 280 281 281 283 282 281 282 279 278 277 276 274 274 272 271 271 270 270 270 271 272 271
210 212 214 216 218 223 231 234 239 243 245 249 249 249 256 259 264 269 272 273 276 280 283 284 282 281 281 281 281 281 281 280 278 278 277 276 275 274 273 273 273 273 273 272
212 215 217 217 219 225 227 230 238 242 245 249 252 253 255 260 264 269 273 274 276 279 285 288 285 283 283 283 283 282 283 282 280 280 280 279 277 276 275 275 275 275 274 273
213 219 220 219 221 226 228 227 231 238 246 252 257 259 260 263 266 271 274 277 279 281 284 286 287 286 285 284 284 284 283 282 282 282 281 279 277 275 274 275 275 275 275 274
211 218 221 220 223 228 230 230 231 240 247 252 260 265 266 266 268 273 277 280 282 284 285 287 287 288 286 284 285 285 283 283 283 282 282 281 279 277 276 275 275 275 274 274
212 216 219 221 225 229 231 236 239 242 250 257 265 271 271 270 272 276 279 280 281 282 284 287 288 288 287 284 284 285 284 283 283 285 284 281 280 279 279 277 276 275 275 274
214 218 222 225 227 231 232 237 241 245 249 257 265 269 272 276 276 278 281 282 283 285 286 287 287 287 286 286 287 287 285 284 283 284 283 282 282 281 281 281 280 278 277 275
210 214 219 227 231 230 233 239 244 248 254 258 265 272 274 276 277 280 284 286 287 287 286 287 289 288 288 286 288 287 286 284 283 284 283 283 282 282 283 283 282 281 279 279
210 215 220 230 237 237 238 242 247 254 261 265 268 273 276 278 280 282 286 288 288 289 290 289 291 291 289 288 288 288 286 285 285 285 284 284 284 287 287 287 285 282 280 280
211 216 222 230 237 240 243 248 252 257 262 266 266 270 276 280 283 285 287 288 289 290 292 291 292 293 293 290 290 290 287 285 285 285 286 287 289 290 289 287 285 282 281 281
208 213 220 225 232 239 245 251 255 256 258 264 269 273 279 283 284 286 288 288 290 292 293 293 292 292 292 292 293 292 290 288 288 288 289 290 290 290 289 289 289 287 285 284
207 213 220 225 232 239 246 252 255 258 263 267 273 277 281 285 287 289 290 291 292 293 293 292 291 291 291 292 293 294 294 292 292 293 294 295 295 295 295 294 292 288 284 282
203 209 218 227 234 242 248 252 256 262 268 273 277 281 283 287 291 293 294 295 294 294 296 293 292 293 294 295 294 294 294 296 297 297 297 299 298 298 297 295 292 290 287 285
200 207 214 222 231 243 255 260 263 267 275 280 282 285 288 292 296 299 300 300 298 297 297 295 295 295 294 294 295 296 294 296 298 300 300 301 302 301 296 296 295 294 295 293
198 207 211 220 230 241 253 261 263 270 281 286 289 294 296 299 300 301 303 303 302 301 300 298 296 294 294 295 298 299 298 299 299 300 302 304 304 303 301 298 297 298 296 295
196 202 213 222 230 247 259 266 272 277 283 292 296 298 301 305 306 308 311 312 310 309 307 303 299 293 295 298 298 300 300 299 300 301 304 306 309 310 311 310 308 309 307 303
195 205 217 229 238 250 263 272 280 286 298 304 304 304 305 307 310 312 314 316 316 315 314 309 301 296 299 303 302 299 296 297 300 307 313 315 318 321 326 329 332 334 330 336
200 213 223 233 243 256 276 283 289 300 308 312 310 311 310 311 310 311 313 315 316 319 321 320 312 306 310 312 307 300 302 309 315 328 340 351 356 358 1 7 13 25 34 49
195 206 219 236 250 274 289 298 305 311 317 319 315 314 312 312 313 312 313 317 323 330 333 335 337 333 329 324 315 319 322 328 338 4 30 36 37 40 44 52 64 76 82 87
185 189 221 248 271 289 300 311 317 323 327 327 324 326 327 327 326 327 326 327 337 351 355 351 350 352 351 350 4 12 15 19 37 53 60 57 60 64 69 75 84 91 94 97
180 175 315 318 304 319 330 337 339 340 339 341 337 336 338 341 345 346 351 359 12 20 22 28 32 34 34 45 51 54 53 55 56 63 66 70 75 79 84 87 91 97 101 97
144 76 11 5 12 18 14 8 6 5 2 0 1 2 1 10 18 20 22 31 36 40 42 42 43 43 47 53 59 67 74 75 73 72 75 84 90 93 92 91 96 101 102 101
Height
5830 5835 5837 5840 5843 5846 5848 5851 5852 5854 5855 5857 5858 5859 5860 5860 5861 5861 5861 5860 5860 5859 5858 5857 5856 5855 5854 5853 5852 5850 5849 5848 5848 5847 5847 5847 5847 5847 5847 5848 5848 5848 5848 5848
5829 5831 5834 5837 5840 5843 5845 5848 5849 5850 5852 5853 5854 5855 5855 5856 5856 5857 5856 5856 5855 5854 5853 5852 5851 5850 5848 5847 5847 5846 5845 5844 5843 5842 5842 5842 5842 5842 5842 5842 5842 5842 5842 5842
5826 5829 5831 5834 5837 5840 5842 5845 5846 5848 5849 5850 5851 5852 5852 5852 5853 5853 5852 5852 5851 5850 5849 5847 5846 5845 5843 5843 5842 5841 5840 5839 5838 5837 5837 5837 5837 5836 5836 5836 5836 5836 5836 5836
5823 5826 5829 5832 5835 5837 5840 5841 5843 5844 5846 5847 5849 5850 5849 5849 5849 5849 5849 5848 5847 5845 5844 5843 5842 5840 5839 5838 5837 5836 5835 5834 5833 5832 5832 5832 5831 5830 5830 5830 5829 5829 5829 5829
5821 5823 5826 5829 5832 5834 5836 5838 5840 5841 5843 5844 5845 5846 5847 5845 5845 5845 5845 5844 5843 5841 5840 5839 5837 5836 5834 5834 5832 5831 5830 5829 5828 5827 5827 5826 5825 5824 5823 5823 5823 5822 5822 5822
5818 5821 5823 5826 5828 5831 5833 5835 5836 5838 5840 5842 5842 5843 5844 5842 5842 5841 5840 5839 5838 5837 5836 5834 5832 5830 5829 5828 5827 5826 5824 5823 5822 5821 5821 5819 5819 5817 5817 5816 5816 5815 5815 5814
5816 5818 5821 5823 5825 5827 5830 5833 5835 5836 5838 5839 5838 5838 5840 5838 5838 5837 5836 5835 5834 5833 5831 5829 5827 5825 5824 5823 5821 5820 5818 5817 5816 5815 5813 5812 5811 5810 5809 5809 5808 5808 5807 5807
5815 5817 5818 5821 5823 5825 5827 5830 5834 5835 5836 5836 5834 5834 5835 5834 5833 5832 5831 5830 5829 5828 5826 5824 5822 5820 5819 5817 5815 5814 5812 5810 5809 5807 5806 5805 5803 5802 5802 5801 5801 5800 5800 5799
5813 5815 5816 5818 5820 5823 5824 5826 5829 5830 5831 5832 5831 5830 5830 5829 5828 5828 5826 5825 5824 5823 5821 5819 5817 5815 5813 5811 5809 5807 5805 5803 5802 5800 5799 5797 5796 5795 5794 5793 5793 5792 5792 5791
5809 5812 5813 5815 5817 5819 5821 5823 5824 5826 5827 5828 5828 5827 5826 5824 5824 5823 5822 5821 5819 5818 5815 5813 5811 5809 5807 5805 5803 5800 5798 5796 5795 5793 5792 5790 5788 5787 5787 5786 5785 5784 5783 5783
5806 5809 5811 5813 5814 5816 5818 5819 5820 5822 5823 5824 5824 5825 5821 5820 5820 5819 5817 5816 5814 5812 5810 5808 5805 5803 5801 5798 5796 5793 5791 5789 5788 5786 5785 5783 5781 5780 5779 5778 5777 5776 5775 5775
5803 5806 5808 5810 5811 5812 5814 5816 5817 5818 5819 5819 5819 5821 5816 5816 5815 5814 5812 5811 5808 5806 5804 5802 5800 5797 5795 5792 5789 5785 5784 5783 5781 5780 5778 5776 5775 5774 5772 5771 5769 5768 5768 5767
5800 5803 5806 5807 5810 5810 5811 5812 5813 5814 5814 5814 5815 5816 5812 5811 5810 5809 5807 5805 5803 5801 5799 5797 5794 5792 5789 5787 5784 5781 5778 5777 5775 5774 5772 5770 5768 5767 5765 5764 5762 5761 5761 5760
5797 5800 5804 5806 5807 5807 5808 5808 5809 5809 5810 5810 5810 5810 5808 5806 5805 5803 5801 5799 5797 5795 5793 5791 5789 5786 5784 5781 5779 5776 5773 5771 5769 5767 5765 5764 5762 5760 5759 5758 5757 5756 5755 5755
5795 5797 5799 5801 5802 5804 5804 5805 5805 5805 5805 5805 5805 5804 5803 5801 5800 5798 5796 5794 5792 5790 5788 5786 5783 5781 5778 5776 5773 5770 5768 5766 5764 5762 5760 5758 5757 5755 5754 5753 5752 5751 5751 5750
5792 5795 5797 5799 5800 5800 5801 5801 5801 5801 5801 5800 5800 5799 5798 5796 5795 5793 5791 5789 5787 5785 5783 5780 5778 5775 5773 5771 5768 5766 5763 5761 5759 5757 5756 5754 5753 5751 5750 5749 5748 5747 5746 5746
5791 5793 5795 5797 5797 5798 5798 5798 5797 5797 5797 5797 5796 5795 5793 5792 5790 5788 5786 5784 5782 5780 5778 5775 5773 5771 5769 5766 5764 5762 5760 5758 5756 5754 5752 5751 5750 5748 5747 5746 5745 5744 5743 5743
5790 5792 5794 5795 5796 5797 5798 5795 5795 5795 5794 5793 5792 5791 5790 5788 5786 5784 5782 5780 5778 5775 5773 5771 5768 5766 5764 5762 5760 5758 5756 5755 5753 5751 5750 5748 5747 5746 5745 5744 5743 5742 5741 5740
5789 5791 5792 5793 5794 5794 5794 5793 5793 5792 5791 5790 5789 5788 5786 5784 5783 5780 5778 5776 5774 5771 5769 5766 5764 5762 5760 5759 5757 5755 5753 5752 5750 5749 5747 5746 5745 5743 5742 5741 5740 5740 5739 5738
5788 5790 5791 5792 5792 5792 5793 5791 5790 5791 5789 5788 5786 5784 5783 5781 5779 5777 5774 5772 5769 5767 5764 5762 5760 5759 5757 5755 5754 5752 5751 5749 5748 5747 5746 5744 5743 5742 5741 5740 5739 5738 5738 5737
5788 5789 5790 5790 5790 5790 5790 5789 5789 5789 5788 5785 5783 5781 5779 5777 5776 5773 5770 5768 5766 5763 5761 5759 5757 5756 5754 5752 5751 5750 5748 5747 5746 5745 5744 5743 5742 5741 5740 5739 5738 5738 5737 5737
5787 5788 5788 5788 5789 5790 5787 5787 5787 5786 5783 5782 5780 5778 5776 5774 5772 5769 5767 5765 5763 5761 5758 5756 5755 5753 5752 5750 5749 5748 5747 5746 5745 5744 5743 5742 5741 5740 5739 5739 5738 5738 5737 5737
5786 5787 5787 5788 5789 5787 5785 5785 5784 5782 5781 5779 5777 5775 5773 5771 5769 5767 5765 5763 5761 5759 5757 5755 5753 5752 5750 5749 5748 5747 5746 5745 5745 5744 5743 5742 5742 5741 5740 5739 5739 5738 5738 5738
5786 5785 5786 5785 5785 5784 5783 5783 5781 5780 5778 5776 5774 5772 5770 5768 5766 5764 5763 5761 5760 5758 5756 5754 5753 5751 5750 5748 5747 5746 5746 5745 5745 5745 5744 5743 5743 5742 5741 5740 5740 5740 5739 5739
5785 5785 5784 5784 5783 5783 5782 5781 5780 5778 5776 5774 5772 5770 5768 5766 5765 5763 5762 5760 5759 5758 5756 5755 5753 5751 5750 5748 5748 5747 5746 5746 5746 5745 5745 5744 5744 5743 5743 5742 5742 5741 5741 5741
5784 5784 5784 5783 5782 5782 5781 5780 5778 5776 5775 5772 5771 5769 5767 5765 5764 5762 5761 5760 5759 5758 5757 5756 5754 5753 5751 5750 5749 5748 5747 5747 5747 5746 5746 5745 5745 5745 5744 5744 5744 5744 5743 5743